Temp
-11 -11 -11 -11 -11 -12 -12 -12 -12 -12 -12 -12 -12 -12 -12 -12 -12 -12 -12 -13 -13 -13 -13 -13 -13 -13 -13 -13 -13 -13 -13 -14 -14 -14 -14 -14 -14 -14 -14 -14 -14 -14
-11 -11 -11 -11 -11 -11 -11 -11 -12 -12 -12 -12 -12 -12 -12 -12 -12 -12 -13 -13 -13 -13 -13 -13 -13 -13 -13 -13 -13 -14 -14 -14 -14 -14 -14 -14 -14 -14 -14 -14 -14 -14
-11 -11 -11 -11 -11 -11 -11 -11 -12 -12 -12 -12 -12 -12 -12 -12 -12 -12 -13 -13 -13 -13 -13 -13 -13 -13 -13 -14 -14 -14 -14 -14 -14 -14 -14 -14 -14 -14 -14 -14 -14 -14
-11 -11 -11 -11 -11 -11 -11 -11 -11 -12 -12 -12 -12 -12 -12 -12 -12 -13 -13 -13 -13 -13 -13 -13 -13 -14 -14 -14 -14 -14 -14 -14 -14 -14 -14 -14 -14 -15 -15 -15 -15 -15
-11 -11 -11 -11 -11 -11 -11 -11 -12 -12 -12 -12 -12 -12 -12 -13 -13 -13 -13 -13 -13 -14 -14 -14 -14 -14 -14 -14 -14 -14 -14 -14 -15 -15 -15 -15 -15 -15 -15 -15 -15 -15
-11 -11 -11 -11 -11 -11 -12 -12 -12 -12 -12 -12 -12 -13 -13 -13 -13 -13 -13 -14 -14 -14 -14 -14 -14 -14 -14 -14 -15 -15 -15 -15 -15 -15 -15 -15 -15 -15 -15 -15 -15 -15
-12 -12 -12 -12 -12 -12 -12 -12 -12 -12 -12 -13 -13 -13 -13 -13 -13 -14 -14 -14 -14 -14 -14 -14 -14 -15 -15 -15 -15 -15 -15 -15 -15 -15 -15 -15 -15 -15 -15 -15 -15 -15
-12 -12 -12 -12 -12 -12 -12 -12 -12 -13 -13 -13 -13 -13 -13 -14 -14 -14 -14 -14 -14 -14 -14 -15 -15 -15 -15 -15 -15 -15 -15 -15 -15 -15 -15 -15 -15 -15 -15 -15 -15 -16
-12 -12 -12 -12 -12 -12 -12 -13 -13 -13 -13 -13 -14 -14 -14 -14 -14 -14 -14 -15 -15 -15 -15 -15 -15 -15 -15 -15 -15 -15 -15 -15 -15 -15 -15 -15 -15 -15 -16 -16 -16 -16
-12 -12 -12 -12 -12 -13 -13 -13 -13 -13 -14 -14 -14 -14 -14 -14 -14 -15 -15 -15 -15 -15 -15 -15 -15 -15 -15 -15 -15 -15 -15 -15 -15 -15 -16 -16 -16 -16 -16 -16 -16 -16
-13 -13 -13 -13 -13 -13 -13 -13 -13 -14 -14 -14 -14 -14 -15 -15 -15 -15 -15 -15 -15 -15 -15 -15 -15 -15 -16 -16 -16 -16 -16 -16 -16 -16 -16 -16 -16 -16 -16 -16 -16 -17
-13 -13 -13 -13 -13 -13 -14 -14 -14 -14 -14 -14 -15 -15 -15 -15 -15 -15 -15 -15 -15 -15 -15 -16 -16 -16 -16 -16 -16 -16 -16 -16 -16 -16 -16 -16 -16 -17 -17 -17 -17 -17
-13 -13 -14 -14 -14 -14 -14 -14 -14 -15 -15 -15 -15 -15 -15 -15 -15 -15 -15 -15 -16 -16 -16 -16 -16 -16 -16 -16 -16 -16 -16 -16 -16 -16 -16 -17 -17 -17 -17 -17 -17 -17
-14 -14 -14 -14 -14 -14 -14 -15 -15 -15 -15 -15 -15 -15 -15 -15 -15 -16 -16 -16 -16 -16 -16 -16 -16 -16 -16 -16 -17 -17 -17 -16 -16 -17 -17 -17 -17 -17 -17 -17 -18 -18
-14 -14 -14 -15 -15 -15 -15 -15 -15 -15 -15 -15 -15 -15 -15 -16 -16 -16 -16 -16 -16 -16 -16 -16 -16 -16 -16 -17 -17 -17 -17 -17 -17 -17 -17 -17 -18 -18 -18 -18 -18 -18
-15 -15 -15 -15 -15 -15 -15 -15 -15 -15 -15 -15 -16 -16 -16 -16 -16 -16 -16 -16 -16 -16 -16 -16 -16 -16 -17 -17 -17 -17 -17 -17 -17 -17 -18 -18 -18 -18 -18 -18 -19 -19
-15 -15 -15 -15 -15 -15 -15 -15 -16 -16 -16 -16 -16 -16 -16 -16 -16 -16 -16 -16 -16 -16 -16 -16 -16 -17 -17 -17 -17 -17 -17 -17 -18 -18 -18 -18 -18 -18 -18 -19 -19 -19
-16 -16 -16 -16 -16 -16 -16 -16 -16 -16 -16 -16 -16 -16 -16 -16 -16 -16 -16 -16 -16 -16 -16 -17 -17 -17 -17 -17 -17 -17 -18 -18 -18 -18 -18 -18 -18 -19 -19 -19 -19 -19
-16 -16 -16 -16 -16 -16 -16 -16 -16 -16 -16 -17 -17 -17 -17 -17 -17 -17 -17 -17 -17 -17 -17 -17 -17 -17 -17 -18 -18 -18 -18 -18 -18 -19 -19 -19 -19 -19 -19 -19 -19 -19
-16 -16 -16 -16 -16 -16 -16 -17 -17 -17 -17 -17 -17 -17 -17 -17 -17 -17 -17 -17 -17 -17 -17 -17 -18 -18 -18 -18 -18 -18 -19 -19 -19 -19 -19 -19 -19 -19 -19 -19 -20 -20
-17 -17 -17 -17 -17 -17 -17 -17 -17 -17 -17 -17 -17 -17 -17 -17 -17 -17 -17 -17 -18 -18 -18 -18 -18 -18 -18 -19 -19 -19 -19 -19 -19 -19 -19 -19 -19 -20 -20 -20 -20 -20
-17 -17 -17 -17 -17 -17 -17 -17 -17 -17 -17 -17 -17 -17 -17 -17 -17 -18 -18 -18 -18 -18 -18 -19 -19 -19 -19 -19 -19 -19 -19 -19 -19 -19 -19 -19 -20 -20 -20 -20 -20 -20
-17 -17 -17 -17 -17 -17 -17 -17 -17 -18 -18 -18 -18 -18 -18 -18 -18 -18 -18 -19 -19 -19 -19 -19 -19 -19 -19 -19 -19 -19 -19 -19 -19 -19 -20 -20 -20 -20 -20 -20 -20 -20
-18 -18 -17 -17 -17 -17 -18 -18 -18 -18 -18 -18 -18 -18 -18 -18 -18 -19 -19 -19 -19 -19 -19 -19 -19 -19 -19 -19 -19 -19 -19 -19 -20 -20 -20 -20 -20 -20 -20 -21 -21 -21
-18 -18 -18 -18 -18 -18 -18 -18 -18 -18 -18 -18 -18 -18 -18 -19 -19 -19 -19 -19 -19 -19 -19 -19 -20 -20 -20 -20 -19 -19 -20 -20 -20 -20 -20 -20 -20 -21 -21 -21 -21 -21
-18 -18 -18 -18 -18 -18 -18 -18 -18 -18 -18 -18 -18 -19 -19 -19 -19 -19 -19 -19 -20 -20 -20 -20 -20 -20 -20 -20 -20 -20 -20 -20 -20 -20 -20 -21 -21 -21 -21 -21 -21 -22
Height
5843 5842 5842 5841 5840 5839 5838 5837 5836 5835 5834 5833 5831 5830 5829 5827 5825 5824 5822 5821 5819 5817 5815 5813 5811 5809 5807 5805 5803 5801 5799 5797 5795 5793 5790 5788 5786 5783 5780 5778 5775 5772
5838 5838 5837 5836 5836 5835 5834 5833 5832 5830 5829 5827 5826 5824 5823 5821 5820 5818 5817 5815 5813 5811 5809 5807 5806 5804 5802 5800 5797 5795 5793 5791 5789 5787 5785 5783 5780 5778 5775 5772 5769 5766
5833 5833 5832 5832 5831 5830 5829 5828 5827 5825 5824 5822 5821 5819 5817 5816 5814 5813 5811 5809 5807 5805 5803 5802 5800 5798 5796 5794 5792 5790 5788 5786 5784 5782 5780 5778 5775 5772 5769 5766 5763 5760
5829 5828 5828 5827 5826 5825 5824 5823 5821 5820 5818 5817 5815 5813 5812 5811 5809 5807 5806 5804 5802 5800 5798 5797 5795 5793 5791 5789 5787 5785 5783 5780 5779 5777 5774 5772 5769 5766 5763 5759 5756 5753
5824 5823 5823 5822 5821 5819 5818 5817 5816 5814 5813 5811 5809 5808 5807 5805 5803 5802 5800 5798 5797 5795 5794 5792 5790 5788 5786 5784 5781 5779 5777 5775 5773 5771 5769 5766 5763 5760 5756 5752 5749 5746
5819 5818 5817 5816 5815 5814 5812 5811 5810 5808 5807 5805 5804 5802 5801 5799 5797 5796 5794 5793 5792 5790 5788 5787 5785 5783 5780 5778 5776 5774 5771 5769 5767 5764 5762 5759 5757 5753 5750 5746 5742 5738
5813 5812 5811 5810 5809 5807 5806 5804 5803 5802 5801 5799 5798 5796 5795 5793 5792 5790 5789 5788 5786 5785 5783 5781 5779 5777 5775 5773 5770 5768 5766 5763 5761 5758 5755 5752 5749 5746 5743 5739 5736 5732
5807 5806 5805 5804 5802 5801 5799 5798 5797 5796 5794 5793 5792 5790 5789 5788 5786 5785 5784 5782 5781 5779 5777 5775 5773 5771 5769 5767 5765 5762 5760 5757 5754 5751 5748 5745 5742 5739 5735 5732 5728 5725
5800 5799 5798 5797 5796 5794 5793 5792 5791 5789 5788 5787 5786 5784 5783 5782 5781 5779 5778 5777 5775 5773 5772 5770 5768 5766 5764 5761 5759 5756 5754 5751 5748 5745 5741 5738 5735 5731 5728 5724 5721 5717
5794 5793 5792 5791 5789 5788 5787 5786 5784 5783 5782 5781 5780 5778 5777 5776 5775 5774 5772 5771 5769 5768 5766 5764 5762 5760 5758 5755 5752 5750 5747 5744 5741 5738 5735 5731 5728 5724 5720 5717 5713 5709
5787 5786 5785 5784 5783 5782 5781 5780 5778 5777 5776 5775 5774 5773 5771 5770 5769 5768 5766 5765 5763 5761 5760 5758 5756 5754 5751 5749 5746 5743 5740 5737 5734 5731 5728 5724 5720 5716 5713 5709 5706 5702
5781 5780 5779 5778 5777 5776 5775 5774 5772 5771 5770 5769 5768 5767 5766 5764 5763 5762 5760 5759 5757 5755 5753 5751 5749 5747 5745 5742 5739 5737 5733 5730 5727 5724 5720 5716 5712 5708 5705 5701 5698 5694
5774 5773 5772 5771 5771 5770 5768 5767 5766 5765 5764 5763 5762 5761 5760 5758 5757 5755 5754 5752 5750 5749 5747 5745 5743 5741 5739 5736 5733 5730 5726 5723 5720 5716 5712 5708 5704 5700 5696 5693 5690 5686
5768 5767 5766 5765 5764 5763 5762 5761 5760 5759 5758 5757 5756 5754 5753 5752 5750 5748 5747 5745 5743 5742 5740 5738 5737 5734 5732 5729 5725 5722 5719 5715 5712 5708 5704 5700 5696 5692 5689 5685 5682 5678
5762 5761 5760 5759 5758 5757 5756 5755 5754 5753 5751 5750 5749 5747 5746 5744 5743 5741 5740 5738 5736 5735 5733 5731 5730 5727 5724 5721 5718 5714 5711 5708 5704 5701 5697 5693 5689 5684 5680 5677 5673 5670
5755 5754 5753 5752 5751 5750 5749 5748 5747 5746 5745 5743 5742 5740 5739 5737 5736 5734 5732 5731 5729 5728 5726 5724 5722 5719 5716 5713 5710 5706 5703 5700 5696 5693 5689 5685 5682 5677 5673 5669 5665 5661
5748 5747 5747 5746 5745 5744 5743 5742 5741 5739 5738 5737 5735 5733 5731 5730 5728 5727 5725 5723 5722 5720 5718 5716 5713 5711 5708 5705 5702 5699 5695 5692 5688 5684 5681 5676 5673 5670 5665 5661 5657 5653
5742 5741 5740 5739 5738 5737 5736 5735 5734 5733 5731 5730 5728 5726 5724 5722 5721 5719 5717 5716 5714 5712 5710 5707 5705 5702 5700 5697 5694 5690 5687 5684 5680 5676 5672 5668 5665 5661 5658 5653 5649 5645
5736 5735 5734 5733 5732 5731 5730 5729 5727 5726 5724 5722 5721 5719 5717 5715 5713 5711 5709 5708 5706 5704 5701 5699 5696 5694 5691 5688 5685 5682 5678 5675 5671 5667 5664 5660 5657 5653 5649 5645 5641 5637
5729 5728 5727 5726 5725 5724 5723 5722 5720 5718 5717 5715 5713 5711 5709 5707 5705 5703 5701 5699 5698 5695 5693 5690 5688 5685 5682 5679 5676 5673 5670 5666 5662 5659 5655 5652 5648 5644 5640 5636 5632 5627
5722 5721 5720 5719 5718 5717 5716 5714 5713 5711 5709 5707 5706 5704 5701 5699 5697 5695 5693 5691 5689 5687 5684 5681 5679 5677 5674 5671 5668 5665 5661 5658 5654 5651 5647 5643 5639 5636 5631 5627 5623 5618
5715 5714 5713 5712 5711 5710 5708 5707 5705 5703 5701 5699 5698 5696 5694 5692 5689 5687 5684 5682 5680 5678 5675 5673 5671 5669 5666 5663 5660 5657 5653 5650 5646 5642 5639 5635 5631 5627 5623 5618 5614 5609
5708 5707 5706 5705 5704 5702 5701 5699 5697 5695 5693 5691 5689 5687 5685 5683 5681 5678 5675 5673 5671 5669 5667 5665 5663 5661 5658 5655 5652 5649 5645 5642 5638 5634 5631 5627 5623 5619 5614 5610 5605 5599
5700 5699 5698 5697 5696 5695 5693 5691 5689 5687 5684 5682 5680 5678 5676 5674 5672 5669 5667 5665 5663 5660 5658 5657 5654 5652 5650 5647 5644 5641 5638 5634 5630 5627 5623 5619 5615 5611 5606 5602 5596 5590
5693 5692 5690 5689 5688 5686 5684 5682 5680 5678 5675 5673 5671 5669 5667 5665 5663 5661 5658 5656 5654 5652 5650 5648 5646 5643 5641 5638 5635 5632 5630 5627 5623 5620 5616 5611 5607 5602 5597 5593 5587 5581
5685 5683 5682 5681 5679 5677 5675 5673 5671 5669 5667 5665 5663 5661 5659 5657 5655 5653 5650 5648 5646 5644 5642 5640 5637 5635 5632 5629 5626 5624 5622 5619 5615 5611 5608 5603 5599 5594 5589 5584 5578 5572
Wind_Speed
39 40 41 41 43 44 45 46 47 48 49 49 50 51 52 52 53 53 54 54 54 55 55 55 55 55 55 55 55 54 53 52 52 52 52 53 53 55 56 57 59 60
38 39 40 42 43 44 45 47 47 49 50 51 51 52 53 54 54 54 55 55 55 56 56 56 56 56 56 55 54 53 53 52 53 53 53 54 55 56 58 59 61 62
38 39 41 42 43 44 46 47 48 50 51 52 53 54 54 55 55 55 55 56 57 57 57 57 56 56 56 55 54 54 53 54 54 54 55 56 57 58 60 61 63 64
39 40 41 42 44 45 47 48 49 51 52 53 54 55 55 55 56 56 56 57 57 57 57 56 56 56 55 54 54 54 54 55 55 55 56 57 59 60 62 63 65 66
40 41 42 44 45 47 48 49 51 52 53 54 55 56 56 56 56 57 57 57 56 56 55 55 55 54 54 54 54 54 55 55 56 57 58 59 61 62 64 65 67 68
41 43 44 46 47 49 50 51 53 54 55 56 56 57 57 57 57 57 57 56 55 55 54 54 54 54 54 54 54 55 56 57 58 59 60 61 63 64 66 67 69 71
44 45 47 48 49 51 52 53 54 55 56 56 57 57 57 57 57 56 55 55 54 53 53 53 53 54 54 55 55 56 58 59 60 61 63 64 66 67 68 70 72 73
47 48 49 50 52 53 54 55 55 56 56 56 56 56 56 56 55 55 54 53 53 53 53 53 54 54 55 56 57 58 59 61 62 64 65 67 68 70 71 72 73 74
50 51 52 52 53 54 55 55 55 55 55 55 55 55 55 54 54 53 52 52 52 53 53 54 54 55 56 58 59 60 62 63 65 66 67 69 70 72 73 74 74 74
52 53 53 54 54 55 55 55 55 55 55 54 54 54 54 53 52 52 52 52 52 52 53 54 55 56 58 59 61 63 64 66 67 68 69 71 72 73 74 74 74 75
53 54 54 55 55 55 55 55 55 55 55 54 54 54 53 53 52 52 52 52 53 53 54 55 56 58 59 61 63 65 66 67 69 70 71 73 74 74 74 74 75 75
54 54 54 54 55 55 55 55 55 55 54 54 54 54 53 53 53 53 53 53 54 54 56 57 58 59 61 63 65 66 68 69 71 72 73 74 74 75 75 75 75 75
53 54 54 54 54 54 54 54 54 54 54 54 54 54 54 54 54 54 55 55 56 57 58 59 60 61 63 64 66 68 70 71 73 73 74 75 75 75 75 75 75 75
54 54 54 54 54 54 54 54 54 54 54 54 54 55 55 55 55 56 56 57 58 59 60 61 62 63 65 66 68 70 72 73 74 74 75 75 75 75 75 75 74 74
54 54 54 54 54 54 54 55 55 55 55 55 56 56 57 57 57 57 58 59 60 61 62 63 65 66 67 69 71 72 74 75 75 75 74 74 74 74 74 74 73 73
53 53 54 54 54 54 55 55 56 56 57 57 58 58 59 59 60 60 61 62 63 64 65 66 68 69 70 71 73 74 75 75 75 74 73 73 73 73 74 73 72 72
53 53 54 54 55 55 56 56 56 57 57 58 59 60 61 62 63 64 65 65 67 68 69 70 71 72 73 74 75 75 75 74 74 73 73 73 73 74 73 72 71 72
54 54 54 55 55 55 56 56 57 58 59 60 61 62 63 64 65 66 68 69 70 71 72 73 74 75 75 75 75 74 74 74 73 73 73 74 74 74 72 71 72 74
54 55 55 56 56 56 57 58 58 59 60 62 63 65 66 67 68 69 70 71 72 73 74 75 75 75 75 74 73 73 73 73 73 73 74 74 73 72 71 72 75 77
55 56 56 57 57 58 59 59 60 61 62 64 65 67 68 69 70 71 72 74 75 75 76 76 75 74 73 72 72 72 73 73 74 74 74 73 72 71 73 75 78 80
56 57 58 58 59 60 60 61 62 63 65 66 67 69 71 72 73 74 75 76 76 76 75 74 73 72 72 72 72 72 73 74 74 74 72 72 72 74 76 79 80 82
58 58 60 60 61 62 63 64 65 66 67 69 70 72 73 74 75 76 76 76 76 74 73 71 71 71 71 72 72 73 74 74 73 72 71 73 75 77 79 81 82 83
60 61 62 63 64 64 65 66 68 69 70 72 73 74 75 76 76 76 75 74 72 71 70 70 70 71 71 72 73 73 73 72 71 72 73 76 78 79 81 82 83 84
62 64 65 66 67 67 68 70 71 72 73 75 76 76 76 75 74 73 72 70 70 70 70 70 71 71 72 73 73 72 71 71 72 74 76 78 79 80 81 82 84 85
66 67 69 69 70 71 72 73 74 75 76 76 76 74 73 71 70 69 69 69 69 70 70 71 72 73 73 72 71 70 71 73 75 77 78 79 79 81 82 83 85 86
70 71 72 73 74 74 75 75 75 75 74 73 71 70 69 68 68 68 69 69 70 71 71 72 72 71 71 70 71 72 74 75 77 77 78 79 80 82 83 84 86 87
Wind_Direction
269 270 271 272 273 274 275 276 277 279 279 280 281 282 282 283 284 285 285 286 287 287 287 288 289 290 292 292 293 294 294 293 293 293 294 295 296 297 298 299 300 301
271 272 273 273 274 275 276 278 278 279 280 280 281 282 282 283 284 284 285 286 286 287 287 288 289 290 291 292 293 292 292 292 292 292 293 295 296 297 298 299 300 301
274 274 275 276 276 277 278 278 279 279 279 280 280 281 282 282 283 284 284 285 285 286 287 289 290 290 291 291 290 290 290 290 291 292 293 295 296 297 298 299 300 301
275 276 277 277 278 278 278 278 279 279 279 279 279 280 280 281 282 282 283 284 285 286 287 288 289 289 289 288 288 289 289 290 291 293 294 296 297 298 299 300 301 302
276 277 277 277 277 278 278 278 278 277 277 277 278 278 279 280 280 281 282 283 284 285 286 287 287 287 287 287 288 289 290 291 292 294 295 296 298 299 300 301 302 302
277 277 277 277 277 277 277 276 276 276 276 276 277 278 278 279 279 280 281 282 283 284 285 285 285 285 286 287 287 289 290 292 293 295 296 297 298 299 300 301 302 303
276 277 277 276 276 275 275 275 275 275 275 276 276 277 277 278 279 280 281 282 283 283 284 284 284 284 285 286 288 289 291 292 294 295 296 297 298 299 300 301 302 302
275 275 275 274 274 274 274 274 274 274 275 275 276 276 277 278 279 280 281 282 282 282 283 283 283 284 285 287 288 290 291 293 294 296 297 298 299 300 301 301 302 303
275 274 274 273 273 273 273 274 274 274 275 275 276 277 278 278 279 280 281 281 281 281 282 283 283 285 286 288 289 291 292 293 295 296 297 299 300 301 301 302 303 304
274 273 273 273 273 273 273 273 274 275 275 276 277 277 278 279 279 280 280 280 281 281 282 283 284 285 287 289 290 291 293 294 295 297 298 300 300 301 302 303 303 304
273 273 272 272 272 272 273 273 274 275 276 276 277 277 278 278 279 279 279 280 280 281 282 283 285 286 288 289 291 292 294 295 297 298 299 300 301 301 302 303 303 303
272 272 271 271 271 272 273 273 274 274 275 276 276 277 277 278 279 279 279 280 281 282 283 284 286 287 289 290 292 293 295 296 297 299 300 300 301 302 302 302 302 302
271 271 271 271 272 272 273 273 274 274 275 275 276 276 277 278 279 279 280 281 282 283 284 286 287 289 290 292 293 294 295 296 298 299 300 301 301 302 302 302 302 301
271 271 271 271 272 272 272 273 273 274 274 275 275 276 277 277 278 279 280 281 282 284 285 287 289 290 292 293 294 295 295 297 298 300 300 301 301 301 301 301 301 301
271 271 271 271 271 272 272 273 273 274 274 275 275 276 277 278 278 279 281 282 284 285 287 289 290 292 293 293 294 295 296 298 299 299 299 300 300 300 300 300 301 301
270 270 270 270 271 271 272 272 273 274 275 275 276 277 278 279 280 281 282 284 286 287 289 290 291 292 293 294 295 296 297 297 298 299 299 299 299 299 300 300 301 302
268 268 269 269 270 271 272 273 274 275 275 276 278 279 280 281 282 283 285 286 287 289 290 290 291 292 293 294 295 296 296 297 298 299 299 299 299 299 300 301 302 303
268 269 269 270 271 272 273 274 275 276 276 277 279 280 281 282 283 285 286 287 288 289 290 291 292 293 293 294 295 296 297 297 298 299 299 299 299 300 301 302 302 303
269 270 271 272 273 273 274 275 276 276 277 278 280 281 282 283 284 286 287 288 289 290 291 292 292 293 294 295 296 296 297 298 299 299 299 299 300 301 302 302 303 303
269 270 271 272 273 274 275 276 277 277 278 279 280 281 283 284 285 286 288 289 289 290 291 291 292 293 294 295 296 297 298 298 298 298 299 299 301 302 302 303 303 303
269 270 271 272 273 274 275 276 277 278 279 280 281 282 283 284 286 287 288 288 289 290 291 292 293 294 294 296 297 297 297 298 298 298 299 301 302 302 303 303 303 303
270 271 271 273 274 275 276 277 278 279 279 280 281 282 283 284 285 286 287 287 289 290 291 292 293 294 295 296 296 297 297 297 298 299 301 302 302 302 302 302 303 303
271 272 273 274 275 276 277 278 279 279 280 281 281 282 283 284 284 285 287 288 289 290 291 292 293 294 295 296 296 296 297 298 299 301 302 301 301 301 302 303 303 304
274 275 275 277 277 278 279 279 280 280 280 281 281 282 283 284 285 287 288 289 290 291 292 293 294 294 295 295 296 296 297 299 300 300 300 300 300 301 302 303 304 304
276 277 278 278 279 279 279 279 280 280 280 281 282 283 285 286 287 288 289 290 291 291 292 293 294 294 295 295 296 297 298 299 298 298 299 300 301 302 303 303 304 305
276 277 278 278 278 278 278 279 279 280 281 282 284 285 286 287 288 289 289 290 291 291 292 293 294 295 296 296 296 296 296 296 297 298 299 300 301 302 303 303 304 305